This is the latest recevied weather packets stored in our database for station/object CE3TDM-12. If no packets are shown the sender has not sent any weather packets the latest 10 day(s).
| Time | Temp. | Humidity | Pressure | Rain* | Wind** | Luminosity | Snow |
|---|---|---|---|---|---|---|---|
| 1787418695 | 19.44° C | 36% | 780.2 hPa | - | - | - | - |
| 1787418394 | 18.89° C | 36% | 780.1 hPa | - | - | - | - |
| 1787418094 | 19.44° C | 36% | 780.2 hPa | - | - | - | - |
| 1787417793 | 20.56° C | 35% | 780.3 hPa | - | - | - | - |
| 1787417493 | 21.11° C | 34% | 780.4 hPa | - | - | - | - |
| 1787417192 | 21.11° C | 34% | 780.5 hPa | - | - | - | - |
| 1787416893 | 20.56° C | 34% | 780.5 hPa | - | - | - | - |
| 1787416592 | 20° C | 34% | 780.6 hPa | - | - | - | - |
| 1787416291 | 19.44° C | 34% | 780.6 hPa | - | - | - | - |
| 1787415991 | 20° C | 33% | 780.7 hPa | - | - | - | - |
| 1787415690 | 21.11° C | 32% | 780.6 hPa | - | - | - | - |
| 1787415390 | 21.11° C | 31% | 780.7 hPa | - | - | - | - |
| 1787415089 | 21.67° C | 30% | 780.8 hPa | - | - | - | - |
| 1787414789 | 21.67° C | 28% | 780.8 hPa | - | - | - | - |
| 1787414488 | 21.67° C | 25% | 780.8 hPa | - | - | - | - |
| 1787414188 | 22.78° C | 32% | 780.9 hPa | - | - | - | - |
| 1787413888 | 22.78° C | 32% | 780.8 hPa | - | - | - | - |
| 1787413587 | 22.78° C | 30% | 780.9 hPa | - | - | - | - |
| 1787413287 | 21.11° C | 31% | 780.9 hPa | - | - | - | - |
| 1787412986 | 20° C | 31% | 780.8 hPa | - | - | - | - |
| 1787412686 | 18.89° C | 30% | 780.9 hPa | - | - | - | - |
| 1787412385 | 18.33° C | 29% | 780.9 hPa | - | - | - | - |
| 1787412085 | 18.89° C | 27% | 780.9 hPa | - | - | - | - |
| 1787411785 | 18.33° C | 25% | 780.8 hPa | - | - | - | - |
| 1787411484 | 18.89° C | 24% | 780.9 hPa | - | - | - | - |
* Rain since midnight (hover to see other rain measurements)
** Current wind speed in m/s (hover to see current wind gust speed)